GFSFLT1_500_rhum_021.txt.gz
RH
12 13 14 20 34 28 35 34 36 29 27 23 41 17 17 18 18 20 21 19 18 17 17 18 20 21 21 22 25 27 29 30
26 11 12 11 9 18 32 45 46 32 22 22 19 20 20 20 20 20 19 18 18 18 20 21 21 21 23 27 29 30 34 43
20 18 12 11 12 16 34 61 42 27 20 20 21 22 23 23 23 22 19 17 18 20 21 21 22 26 31 32 34 52 52 52
17 23 26 12 12 20 27 62 56 43 25 24 25 27 29 26 23 20 17 19 21 21 21 26 32 35 37 54 69 64 57 64
16 21 30 23 18 30 52 59 66 68 42 25 25 29 74 29 24 19 20 21 21 25 31 33 36 43 68 62 54 47 49 61
26 31 51 51 21 38 36 45 63 58 49 47 26 40 65 33 22 27 26 24 28 27 25 31 50 54 48 44 75 65 68 69
68 80 63 47 38 33 56 63 61 65 43 40 36 43 45 62 53 59 52 34 23 25 37 50 72 100 80 61 63 64 63 61
41 43 54 57 40 49 46 22 41 52 30 22 36 44 54 73 73 77 72 51 53 59 56 98 77 72 63 63 64 65 68 66
22 49 82 82 82 58 34 28 73 50 54 47 40 55 53 83 84 77 59 56 62 60 43 94 100 93 59 64 69 64 67 69
26 43 39 62 47 38 41 46 32 38 44 42 40 70 93 93 77 61 64 64 62 70 66 53 61 58 57 59 61 64 72 77
18 17 17 21 18 22 20 29 28 39 33 31 44 76 95 74 72 81 79 84 95 65 55 62 68 64 68 72 75 78 81 87
19 18 18 17 18 19 22 26 24 29 39 45 54 77 92 98 89 88 91 99 74 62 69 79 68 75 77 80 83 92 100 100
22 18 18 18 19 18 20 25 28 30 40 52 64 89 91 96 98 100 100 87 72 80 73 69 82 92 100 98 90 100 87 86
21 20 21 19 18 28 29 29 54 71 79 93 97 94 83 92 95 100 93 80 83 75 77 86 86 92 100 100 97 83 77 94
22 21 24 26 28 32 43 50 59 75 76 81 93 90 88 98 99 85 78 69 70 82 87 82 80 74 76 84 81 88 66 81
19 18 24 36 26 25 39 57 51 55 54 54 50 47 50 66 76 59 51 65 72 68 66 74 75 51 63 82 100 100 72 94
18 16 16 14 8 6 6 6 13 12 12 30 43 45 39 56 39 52 62 66 65 60 100 100 87 81 44 99 100 62 100 100
20 18 14 12 8 7 6 7 10 20 38 44 37 36 38 52 62 69 68 64 76 100 73 100 94 44 21 46 67 86 100 90
15 11 9 6 6 6 7 11 22 38 43 38 30 57 78 74 76 72 67 73 100 58 31 72 18 10 33 82 62 100 72 43

GFSFLT1_500_rhum_024.txt.gz
RH
15 18 25 31 41 47 36 33 33 26 20 16 35 21 16 18 18 18 18 17 19 18 16 17 19 20 20 22 29 31 34 45
18 17 16 15 12 21 36 46 39 32 22 20 29 24 30 19 18 18 18 18 18 17 17 19 20 20 28 34 34 41 61 60
18 18 13 12 16 24 33 40 41 34 22 18 22 21 21 20 20 19 18 19 18 18 20 21 26 32 36 39 47 64 75 64
24 24 17 14 14 20 22 49 46 48 27 19 22 25 23 21 25 34 22 20 20 27 31 34 35 41 47 51 58 94 98 74
20 18 25 29 14 14 36 56 50 63 42 22 22 21 21 25 40 60 49 52 53 55 60 58 62 55 63 100 91 86 91 66
30 33 37 42 59 25 30 46 39 50 60 50 43 36 38 35 48 55 62 77 76 71 80 83 75 81 69 72 99 100 94 71
42 42 48 92 87 62 39 62 75 61 76 91 50 29 31 41 55 71 77 89 96 88 83 86 86 87 87 80 44 51 49 55
65 66 85 88 71 64 55 75 72 49 91 89 75 60 57 60 64 79 92 100 100 94 86 91 92 86 72 50 47 54 54 56
53 48 44 47 65 58 49 47 55 64 87 98 79 67 60 54 84 97 100 100 100 95 100 96 92 86 61 57 59 55 56 56
18 22 50 84 91 88 39 30 24 28 40 54 52 51 67 72 97 100 99 97 92 100 96 82 87 89 59 58 52 55 62 60
18 19 18 17 24 19 18 19 19 19 25 50 74 71 74 84 94 94 99 92 85 88 83 88 100 64 56 54 62 65 60 58
21 20 19 19 19 19 20 20 23 38 57 80 75 87 87 90 94 100 94 85 79 94 91 99 74 55 57 74 69 62 78 87
32 25 21 20 19 20 20 25 50 71 67 73 88 95 97 100 100 100 98 99 84 73 95 79 59 70 85 67 60 77 85 93
24 22 21 22 21 21 42 76 79 64 68 80 75 85 96 99 88 89 48 49 53 64 77 68 80 89 74 72 89 93 94 96
22 24 26 26 21 33 62 79 61 48 52 47 74 74 61 46 46 44 45 44 45 65 75 80 73 72 97 100 100 75 64 87
20 18 18 18 21 31 36 26 14 10 7 28 51 40 32 45 49 44 34 51 89 92 77 83 97 100 100 100 100 30 7 12
19 20 20 18 15 10 9 6 4 4 4 6 12 23 35 43 43 36 68 100 84 80 70 99 100 100 62 83 30 7 7 11
23 22 20 16 10 8 5 5 4 5 6 11 22 37 43 44 42 80 95 84 79 73 75 96 85 72 18 6 5 6 8 10
20 18 13 10 7 6 6 5 6 7 10 17 28 42 46 49 65 78 78 75 98 100 67 46 29 8 6 6 7 9 10 12

GFSFLT1_500_rhum_027.txt.gz
RH
25 32 38 37 36 32 24 17 18 21 22 23 29 32 53 42 26 20 16 18 20 18 16 16 17 20 19 25 27 22 17 18
26 32 42 52 41 46 41 35 31 30 26 22 40 34 21 26 29 19 17 18 20 18 18 17 19 25 35 48 55 41 27 51
20 20 24 19 22 32 41 51 43 36 28 24 45 37 32 63 28 19 21 22 23 26 28 35 50 57 63 68 70 60 48 53
14 18 17 17 19 23 28 44 63 58 51 27 21 26 60 50 25 22 26 46 52 55 68 78 78 70 71 66 71 66 63 56
22 22 19 26 23 18 21 37 36 50 58 44 22 24 52 24 20 23 34 42 54 66 76 76 75 78 76 68 93 98 78 75
22 21 18 19 25 26 33 27 46 52 46 61 54 26 34 48 43 35 42 52 65 81 83 83 82 84 83 80 68 100 100 91
23 20 18 24 32 37 58 48 38 46 49 78 83 43 67 42 49 51 57 71 89 89 94 94 92 89 87 88 95 93 92 90
62 43 40 38 34 63 66 52 43 67 71 43 86 92 95 96 93 78 74 80 97 99 100 100 100 96 98 100 99 93 100 72
63 68 76 72 71 78 61 55 56 58 61 79 72 62 86 92 90 97 100 96 100 100 100 98 99 100 96 100 100 100 88 54
47 52 51 48 42 48 84 67 75 45 32 26 23 48 84 98 97 98 96 94 100 98 96 100 100 100 100 99 98 85 51 68
56 22 23 34 55 75 97 80 33 22 21 24 57 95 97 94 92 100 99 99 100 100 96 100 100 100 88 82 63 59 69 67
63 28 20 20 19 19 39 54 25 22 25 56 93 93 93 90 93 89 96 100 100 99 94 98 90 55 58 72 88 76 78 76
82 55 40 25 24 21 20 20 21 29 87 95 90 85 77 73 76 95 99 100 100 87 58 66 46 52 85 93 72 74 84 82
70 70 48 37 29 27 26 25 31 53 75 94 70 52 42 59 82 66 69 58 65 44 47 41 43 81 94 78 73 90 78 98
22 28 31 30 25 27 28 24 24 48 59 43 22 24 24 33 43 37 31 37 41 43 44 48 87 92 88 92 73 93 98 92
26 28 29 28 25 22 24 28 31 22 14 7 5 6 14 14 16 25 35 39 42 45 53 86 84 99 97 93 100 98 59 35
30 26 21 19 21 24 25 23 14 8 6 6 7 8 8 10 15 24 37 44 50 59 87 84 78 71 100 100 94 65 33 12
30 29 29 29 26 25 18 10 7 8 9 10 12 12 11 12 18 32 46 54 64 78 82 97 85 85 82 79 63 40 21 10
32 29 28 28 23 14 8 10 11 12 15 20 21 19 15 16 27 46 54 60 75 96 86 92 92 91 73 60 47 33 16 10

GFSFLT1_500_rhum_030.txt.gz
RH
24 32 32 30 32 34 31 29 27 26 23 20 29 52 61 74 79 66 30 18 17 18 19 18 16 14 14 23 38 49 44 33
26 30 37 35 32 28 23 20 22 23 26 27 29 39 36 54 65 35 21 18 18 19 18 18 19 29 43 52 61 63 57 47
26 35 42 42 39 41 38 36 39 40 33 25 22 32 38 37 36 40 25 24 21 21 26 54 55 60 60 66 61 57 49 44
22 22 34 22 22 29 36 44 51 50 46 34 25 39 42 39 67 50 58 27 26 39 49 55 66 70 69 61 36 39 44 52
20 18 19 17 17 18 21 25 33 38 48 56 53 26 30 43 84 90 43 32 32 44 52 61 76 76 69 58 65 74 82 60
24 22 22 23 28 30 31 33 30 39 61 57 49 68 50 37 42 80 55 45 49 53 57 69 82 80 76 73 85 72 87 83
34 20 19 19 21 25 28 43 75 67 49 57 70 89 84 73 61 78 54 65 80 83 87 85 82 79 85 94 90 88 84 85
78 82 37 31 25 30 30 39 73 69 42 64 86 72 62 97 98 98 98 98 98 99 97 92 98 97 100 100 86 99 95 95
94 85 68 69 68 58 58 50 68 63 46 65 66 68 76 70 72 86 98 98 98 98 93 99 99 96 99 95 87 100 100 78
100 87 72 74 63 54 61 57 57 59 58 65 41 59 52 48 83 98 98 96 97 94 95 93 88 81 93 81 100 88 99 48
82 64 56 36 62 75 52 55 72 89 88 39 23 23 34 78 98 98 98 96 97 91 89 76 100 99 99 100 98 95 56 88
59 72 75 26 23 24 30 29 40 62 69 24 22 24 87 98 97 89 84 75 92 94 92 99 100 100 98 91 75 58 88 94
32 38 63 60 33 25 22 22 22 22 22 23 24 58 61 78 76 42 59 75 60 60 70 67 55 49 49 73 64 95 100 100
24 21 76 88 70 66 48 38 30 29 30 33 31 32 76 70 42 33 38 25 20 16 27 26 40 47 65 83 100 97 87 79
14 20 26 33 35 36 44 32 27 32 30 23 40 42 36 29 9 8 8 11 13 18 23 31 46 58 75 81 85 90 100 87
15 23 29 31 38 35 31 28 32 46 42 30 27 16 7 7 10 14 16 14 15 17 22 36 48 97 95 94 93 87 90 91
21 27 41 44 37 29 28 34 40 34 28 16 8 9 11 18 24 26 21 18 16 19 23 45 57 80 99 100 100 93 100 100
14 28 43 48 44 41 36 33 31 23 11 9 12 18 23 24 32 29 24 21 19 23 37 56 66 88 97 97 100 98 98 98
15 16 28 39 41 41 36 32 19 11 12 18 22 19 25 39 41 36 28 22 28 41 56 68 77 98 100 100 100 93 85 87

GFSFLT1_500_rhum_033.txt.gz
RH
25 25 32 41 31 25 24 36 52 58 47 25 24 46 62 72 82 84 71 61 34 19 19 18 17 15 16 15 24 42 42 36
25 26 31 29 29 27 19 21 18 28 52 20 20 28 50 78 93 90 73 31 20 18 18 17 17 18 22 47 47 45 45 22
21 24 32 29 31 33 29 26 25 24 27 26 23 22 27 38 68 80 51 29 21 20 20 20 27 37 56 50 49 59 54 48
18 21 29 35 30 20 19 22 26 29 32 36 34 26 28 40 34 48 50 40 34 23 27 29 37 40 48 61 80 79 62 65
29 17 16 14 12 13 13 12 12 16 22 30 42 52 40 32 44 44 66 77 70 31 26 33 52 61 65 85 85 76 63 59
20 21 17 16 14 14 16 18 18 18 22 27 42 48 47 55 34 22 30 55 75 55 49 67 80 79 84 93 84 78 74 83
57 34 19 18 18 19 21 20 21 26 48 68 46 51 64 73 81 75 73 73 83 91 81 94 98 96 95 95 97 91 100 100
72 77 81 94 76 36 33 35 42 42 43 63 58 51 81 86 80 85 80 76 85 97 97 99 98 93 90 86 100 99 96 99
67 81 92 87 68 62 66 68 71 70 88 64 66 52 62 58 55 58 68 97 97 97 98 96 92 84 80 84 93 100 100 100
70 84 85 92 67 58 55 64 65 64 61 71 95 57 61 37 24 26 69 94 97 98 97 80 75 87 87 85 100 100 97 98
71 92 96 97 87 62 36 49 63 65 62 75 98 68 35 23 23 54 87 96 90 72 78 71 59 70 81 99 89 95 100 94
67 76 88 85 80 68 34 27 29 34 28 33 31 58 40 45 46 40 47 63 54 30 32 24 20 29 29 80 76 53 35 36
47 58 82 80 78 71 47 25 22 21 21 22 22 44 30 35 61 49 72 66 54 33 12 10 12 15 37 37 27 41 47 53
25 35 36 34 39 75 86 67 57 51 40 32 28 27 36 40 37 46 46 28 10 11 10 15 18 45 48 35 47 56 68 100
17 18 21 22 36 63 99 95 77 60 48 36 28 33 53 58 43 25 13 7 11 20 24 25 22 25 35 43 49 63 92 98
11 15 22 21 26 30 32 26 29 34 39 46 64 74 55 29 19 9 10 17 28 28 31 30 27 24 26 40 47 61 75 86
10 12 19 25 28 32 32 32 41 64 63 58 44 31 24 11 10 15 23 25 27 37 41 36 28 28 34 47 60 65 73 88
9 12 12 13 25 52 51 59 58 49 40 33 30 17 11 14 21 23 24 27 34 46 48 39 34 38 48 55 58 63 70 86
10 12 13 13 18 65 77 59 49 43 38 32 15 14 20 22 21 23 25 32 47 51 49 44 45 50 52 59 67 74 80 89